This is the latest recevied weather packets stored in our database for station/object KQ7A. If no packets are shown the sender has not sent any weather packets the latest 10 day(s).
| Time | Temp. | Humidity | Pressure | Rain* | Wind** | Luminosity | Snow |
|---|---|---|---|---|---|---|---|
| 1778118087 | 18.33° C | 31% | 1020.4 hPa | 0 mm | - | 32 W/m² | - |
| 1778117784 | 18.33° C | 32% | 1020.1 hPa | 0 mm | - | 34 W/m² | - |
| 1778117481 | 18.33° C | 33% | 1020.4 hPa | 0 mm | - | 35 W/m² | - |
| 1778117178 | 18.89° C | 32% | 1020.3 hPa | 0 mm | - | 37 W/m² | - |
| 1778116874 | 19.44° C | 33% | 1020.1 hPa | 0 mm | - | 38 W/m² | - |
| 1778116572 | 21.67° C | 33% | 1020.4 hPa | 0 mm | - | 43 W/m² | - |
| 1778116268 | 22.78° C | 28% | 1020.5 hPa | 0 mm | - | 190 W/m² | - |
| 1778115963 | 23.33° C | 30% | 1020.4 hPa | 0 mm | - | 203 W/m² | - |
| 1778115659 | 24.44° C | 25% | 1020.4 hPa | 0 mm | - | 225 W/m² | - |
| 1778115357 | 23.89° C | 31% | 1020.4 hPa | 0 mm | - | 238 W/m² | - |
| 1778115052 | 24.44° C | 31% | 1020.5 hPa | 0 mm | - | 252 W/m² | - |
| 1778114750 | 25° C | 24% | 1020.3 hPa | 0 mm | - | 271 W/m² | - |
| 1778114447 | 25° C | 26% | 1020.4 hPa | 0 mm | - | 300 W/m² | - |
| 1778114143 | 25° C | 23% | 1020.3 hPa | 0 mm | - | 319 W/m² | - |
| 1778113838 | 25.56° C | 19% | 1020.4 hPa | 0 mm | - | 340 W/m² | - |
| 1778113535 | 25° C | 22% | 1020.5 hPa | 0 mm | - | 350 W/m² | - |
| 1778113230 | 24.44° C | 23% | 1020.3 hPa | 0 mm | - | 370 W/m² | - |
| 1778112927 | 24.44° C | 20% | 1020.3 hPa | 0 mm | - | 385 W/m² | - |
| 1778112620 | 24.44° C | 21% | 1020.4 hPa | 0 mm | - | 407 W/m² | - |
| 1778112315 | 25° C | 23% | 1020.4 hPa | 0 mm | - | 430 W/m² | - |
| 1778112011 | 25° C | 24% | 1020.5 hPa | 0 mm | - | 437 W/m² | - |
| 1778111709 | 25° C | 19% | 1020.5 hPa | 0 mm | - | 445 W/m² | - |
| 1778111404 | 25° C | 22% | 1020.3 hPa | 0 mm | - | 465 W/m² | - |
| 1778111102 | 24.44° C | 22% | 1020.4 hPa | 0 mm | - | 484 W/m² | - |
| 1778110799 | 25° C | 23% | 1020.6 hPa | 0 mm | - | 490 W/m² | - |
* Rain latest hour (hover to see other rain measurements)
** Current wind speed in m/s (hover to see current wind gust speed)